PBO Station Position Time Series. Reference Frame : NAM14
Format Version,1.1.0
4-character ID,BILI
Station name,Bilibino
Begin Date, 1999-09-05
End Date, 2008-12-11
Release Date, 2021-02-19
Reference position, 68.0761288561 North Latitude, 166.4379633010 East Longitude, 456.14235 meters elevation,
Date, North (mm), East (mm), Vertical (mm), North Std. Deviation (mm), East Std. Deviation (mm),              Vertical Std. Deviation (mm), Quality,
1999-09-05,0.00, 0.00, 0.00, 2.26, 1.71, 8.58, repro,
1999-09-06,0.51, -0.60, -2.69, 2.27, 1.72, 8.50, repro,
1999-09-07,0.44, -0.69, -0.44, 2.52, 1.83, 9.03, repro,
1999-09-08,-3.61, -0.64, 1.00, 2.54, 1.88, 8.91, repro,
1999-09-09,-1.08, -0.76, -6.48, 2.32, 1.71, 8.63, repro,
1999-09-10,-0.59, -2.05, -0.82, 2.30, 1.70, 8.94, repro,
1999-09-11,0.07, -1.68, -7.09, 2.25, 1.69, 8.81, repro,
1999-09-12,0.53, -2.71, -10.22, 3.22, 2.27, 11.73, repro,
1999-09-13,-2.02, 0.10, -7.13, 2.62, 1.91, 9.49, repro,
1999-09-14,1.37, -3.20, 1.66, 2.31, 1.68, 8.81, repro,
1999-09-15,4.55, -2.97, 9.08, 2.33, 1.72, 8.80, repro,
1999-09-16,5.57, -4.75, 0.90, 2.62, 1.99, 9.80, repro,
1999-09-17,2.78, -3.41, 3.36, 2.39, 1.77, 9.47, repro,
1999-09-18,2.86, -1.83, -2.55, 2.30, 1.71, 8.87, repro,
1999-09-19,-2.91, -1.09, 1.84, 2.25, 1.67, 8.79, repro,
1999-09-20,0.97, -3.15, -1.88, 2.37, 1.75, 9.44, repro,
1999-09-21,-1.60, -0.92, 3.69, 2.37, 1.74, 9.15, repro,
1999-09-22,1.95, -4.09, -2.61, 2.46, 1.81, 9.78, repro,
1999-09-23,1.47, -2.71, -2.25, 2.33, 1.77, 9.01, repro,
1999-09-24,-0.55, -1.23, -1.71, 2.45, 1.82, 9.21, repro,
1999-09-25,-1.15, -3.62, -8.45, 2.31, 1.72, 8.88, repro,
1999-09-26,-0.79, -1.42, -6.33, 2.44, 1.80, 9.41, repro,
1999-09-27,0.77, -0.88, 0.93, 2.89, 2.08, 10.92, repro,
1999-09-28,1.22, -3.07, -2.23, 2.57, 1.87, 9.72, repro,
1999-09-29,0.26, -0.95, 0.07, 2.41, 1.81, 9.21, repro,
1999-09-30,0.63, -0.97, -4.08, 2.62, 1.89, 9.83, repro,
1999-10-01,0.88, -1.67, -1.01, 2.41, 1.79, 9.48, repro,
1999-10-02,-0.16, 0.33, 8.10, 2.51, 1.83, 9.69, repro,
1999-10-03,0.20, 0.35, 5.24, 2.44, 1.82, 9.27, repro,
1999-10-04,1.01, 1.61, 9.81, 2.38, 1.76, 9.00, repro,
1999-10-05,1.97, -1.03, 7.26, 2.39, 1.78, 9.08, repro,
1999-10-06,0.49, -1.33, 13.19, 2.28, 1.70, 8.88, repro,
1999-10-07,-1.10, -0.08, 3.55, 2.43, 1.80, 9.16, repro,
1999-10-08,1.46, -1.16, 10.10, 2.41, 1.78, 9.25, repro,
1999-10-09,-0.64, -0.03, 5.57, 2.42, 1.81, 8.77, repro,
1999-10-10,1.47, -2.11, 8.68, 2.91, 2.05, 10.53, repro,
1999-10-11,-0.73, 1.04, 10.53, 2.41, 1.78, 8.75, repro,
1999-10-12,2.03, 0.98, 4.98, 2.78, 2.01, 10.49, repro,
1999-10-13,-0.65, 0.11, 5.05, 2.54, 1.84, 9.09, repro,
1999-10-14,-0.77, -1.21, 2.12, 2.50, 1.82, 9.25, repro,
1999-10-15,-0.90, -0.10, 1.64, 2.49, 1.82, 9.57, repro,
1999-10-16,0.99, -0.98, -9.05, 2.58, 1.86, 9.18, repro,
1999-10-17,0.70, 0.19, 0.03, 2.47, 1.82, 9.17, repro,
1999-10-18,2.11, -0.99, 10.80, 2.37, 1.77, 8.72, repro,
1999-10-19,0.82, 0.32, 3.45, 2.34, 1.72, 8.97, repro,
1999-10-20,2.80, -0.29, -3.15, 2.32, 1.73, 8.93, repro,
1999-10-21,-0.79, 1.83, -9.66, 2.42, 1.77, 9.06, repro,
1999-10-22,0.23, -0.86, -2.63, 3.22, 2.37, 11.90, repro,
1999-10-23,-0.13, 1.26, 3.44, 2.53, 1.86, 9.29, repro,
1999-10-24,0.79, 0.07, -7.19, 2.51, 1.85, 9.53, repro,
1999-10-25,-0.27, 0.02, -4.54, 2.39, 1.75, 9.03, repro,
1999-10-26,2.73, -2.07, -0.71, 2.42, 1.80, 8.81, repro,
1999-10-27,1.28, 0.96, -6.81, 2.67, 1.90, 9.68, repro,
1999-10-28,-1.97, 0.67, 4.78, 2.62, 1.94, 9.52, repro,
1999-10-29,-1.34, -0.89, -1.36, 2.38, 1.83, 9.28, repro,
1999-10-30,0.62, -4.50, -0.09, 2.40, 1.81, 8.75, repro,
1999-10-31,1.01, -3.18, -0.04, 2.30, 1.76, 8.95, repro,
1999-11-01,-0.29, -4.37, -0.03, 2.31, 1.76, 8.86, repro,
1999-11-02,-0.03, -0.99, 5.36, 2.30, 1.74, 8.51, repro,
1999-11-03,-1.27, -1.51, 8.05, 2.24, 1.69, 8.44, repro,
1999-11-04,1.90, -1.81, 2.02, 2.26, 1.73, 8.72, repro,
1999-11-05,0.01, -1.88, -5.31, 2.37, 1.78, 8.86, repro,
1999-11-06,2.14, -5.84, -2.98, 2.36, 1.77, 8.62, repro,
1999-11-07,-0.86, -1.62, -7.31, 2.68, 1.98, 9.91, repro,
1999-11-08,1.82, -1.35, -5.36, 2.63, 1.92, 9.77, repro,
1999-11-09,3.76, -1.00, -2.27, 2.61, 1.95, 9.48, repro,
1999-11-10,1.69, -4.85, -0.26, 2.30, 1.71, 8.57, repro,
1999-11-11,0.71, -3.73, -1.81, 2.52, 1.82, 9.06, repro,
1999-11-12,1.97, -4.79, -10.78, 2.30, 1.74, 8.56, repro,
1999-11-13,3.00, -3.11, -6.02, 3.22, 2.29, 11.59, repro,
1999-11-14,-0.02, 0.01, -13.82, 2.32, 1.73, 8.56, repro,
1999-11-15,0.29, -2.04, -10.87, 2.21, 1.66, 8.37, repro,
1999-11-16,-0.27, -0.63, -14.21, 2.70, 2.05, 10.05, repro,
1999-11-17,1.21, -0.95, -10.87, 2.34, 1.73, 8.51, repro,
1999-11-18,3.34, -5.01, 0.68, 2.38, 1.82, 9.07, repro,
1999-11-19,1.77, -1.96, -5.50, 2.46, 1.81, 9.08, repro,
1999-11-20,-1.44, -1.34, -4.21, 2.39, 1.86, 8.86, repro,
1999-11-21,-0.82, -1.72, -13.86, 2.49, 1.88, 9.17, repro,
1999-11-22,2.27, -4.20, -15.86, 2.37, 1.79, 8.93, repro,
1999-11-23,-0.94, -0.79, -10.85, 2.72, 1.97, 9.83, repro,
1999-11-24,2.48, -5.02, -6.01, 2.63, 1.98, 10.04, repro,
1999-11-25,0.08, -3.68, -20.18, 2.56, 1.94, 9.56, repro,
1999-11-26,0.42, -3.66, -14.50, 2.35, 1.78, 8.95, repro,
1999-11-27,0.89, -2.61, -17.22, 2.21, 1.66, 8.55, repro,
1999-11-28,-1.11, -1.58, -6.71, 2.27, 1.71, 8.68, repro,
1999-11-29,-1.79, -2.02, -4.28, 2.24, 1.72, 9.03, repro,
1999-11-30,0.13, -2.17, 0.50, 2.42, 1.86, 9.46, repro,
1999-12-01,-1.71, -1.99, -5.51, 2.36, 1.79, 9.19, repro,
1999-12-02,-2.20, -3.71, -13.95, 2.36, 1.76, 8.93, repro,
1999-12-03,0.17, -2.90, -7.92, 2.52, 1.85, 9.50, repro,
1999-12-04,3.88, -2.83, -2.26, 2.69, 1.97, 9.99, repro,
1999-12-05,2.69, -3.17, -6.90, 2.29, 1.73, 8.54, repro,
1999-12-06,1.43, -3.37, -5.79, 2.61, 1.99, 9.99, repro,
1999-12-07,3.80, -3.72, -1.40, 2.39, 1.77, 8.97, repro,
1999-12-08,4.79, -5.15, -1.44, 2.58, 1.90, 10.02, repro,
1999-12-09,4.51, -3.20, -12.28, 2.41, 1.82, 9.32, repro,
1999-12-10,3.70, -4.55, -15.35, 2.37, 1.76, 9.02, repro,
1999-12-11,2.40, -1.50, -22.43, 2.45, 1.84, 9.58, repro,
1999-12-12,1.33, -2.81, -21.20, 2.39, 1.76, 9.04, repro,
1999-12-13,1.49, -3.14, -20.05, 2.72, 1.97, 10.19, repro,
1999-12-14,1.01, -5.14, -17.11, 2.51, 1.88, 9.43, repro,
1999-12-15,0.62, -4.16, -9.18, 2.48, 1.95, 9.01, repro,
1999-12-16,2.98, -3.83, -11.60, 2.37, 1.82, 9.03, repro,
1999-12-17,0.92, -4.84, -8.17, 2.47, 1.88, 10.08, repro,
1999-12-18,1.04, -4.40, -5.82, 2.46, 1.88, 9.78, repro,
1999-12-26,2.11, -6.49, -8.64, 2.35, 1.82, 8.99, repro,
1999-12-27,-5.05, -12.51, -10.37, 6.47, 4.13, 22.47, repro,
1999-12-28,0.89, -7.07, -13.83, 2.34, 1.71, 8.97, repro,
1999-12-29,1.68, -6.24, -15.19, 2.23, 1.66, 8.83, repro,
1999-12-30,3.86, -6.68, -17.02, 2.24, 1.66, 8.58, repro,
2000-01-02,4.39, -6.13, -22.61, 2.23, 1.70, 8.60, repro,
2000-01-03,2.79, -7.50, -20.20, 2.21, 1.72, 8.57, repro,
2000-01-09,0.60, -4.83, -40.90, 2.50, 1.87, 9.35, repro,
2000-01-11,0.33, -5.08, -39.95, 2.57, 1.99, 9.63, repro,
2000-01-12,0.94, -4.36, -35.07, 2.33, 1.78, 8.71, repro,
2000-01-13,2.43, -6.61, -27.80, 2.22, 1.72, 8.49, repro,
2000-01-14,0.15, -6.68, -31.29, 2.27, 1.75, 8.67, repro,
2000-01-15,1.26, -5.26, -33.75, 2.19, 1.70, 8.62, repro,
2000-01-16,4.74, -6.81, -22.99, 2.29, 1.80, 8.70, repro,
2000-01-17,2.31, -5.84, -27.57, 2.35, 1.85, 8.93, repro,
2000-01-18,3.83, -7.09, -38.96, 2.09, 1.69, 8.63, repro,
2000-01-19,2.79, -7.14, -35.91, 2.28, 1.75, 8.61, repro,
2000-01-20,3.32, -4.59, -37.94, 2.25, 1.72, 8.61, repro,
2000-01-21,2.87, -4.19, -38.26, 2.32, 1.74, 8.88, repro,
2000-01-24,0.95, -3.85, -29.05, 2.29, 1.74, 8.55, repro,
2000-01-25,1.14, -3.81, -17.84, 2.27, 1.75, 8.61, repro,
2000-01-30,2.23, -1.87, -20.84, 2.36, 1.76, 8.99, repro,
2000-01-31,1.87, -6.22, -20.62, 2.37, 1.81, 9.02, repro,
2000-02-01,5.12, -6.48, -19.46, 2.40, 1.84, 9.10, repro,
2000-02-02,2.60, -3.76, -23.45, 2.41, 1.85, 9.18, repro,
2000-02-05,7.90, -3.30, -28.83, 2.49, 1.88, 9.25, repro,
2000-02-06,3.95, -2.79, -34.82, 2.65, 1.97, 9.37, repro,
2000-02-07,4.76, -1.88, -40.56, 2.60, 1.94, 9.23, repro,
2000-02-08,4.74, -4.42, -27.28, 2.36, 1.79, 8.86, repro,
2000-02-09,3.07, -4.04, -20.03, 2.38, 1.77, 8.71, repro,
2000-02-10,4.62, -4.16, -16.49, 2.29, 1.74, 8.63, repro,
2000-02-11,4.03, -1.53, -14.18, 2.50, 1.86, 9.05, repro,
2000-02-12,2.62, -3.32, -17.44, 3.27, 2.28, 11.67, repro,
2000-02-13,3.35, -0.33, -15.83, 2.40, 1.80, 8.63, repro,
2000-02-14,9.75, -4.71, -18.19, 3.41, 2.54, 12.36, repro,
2000-02-15,3.26, -2.47, -13.70, 2.27, 1.69, 8.46, repro,
2000-02-16,-0.00, -2.72, -12.69, 2.22, 1.70, 8.40, repro,
2000-02-19,1.67, -5.21, -12.35, 2.19, 1.67, 8.41, repro,
2000-02-20,1.02, -4.86, -19.04, 2.26, 1.73, 8.67, repro,
2000-02-21,1.94, -3.45, -22.60, 2.46, 1.85, 9.57, repro,
2000-02-22,-0.25, -5.28, -21.90, 2.19, 1.66, 8.38, repro,
2000-02-23,3.58, -4.64, -14.31, 2.37, 1.80, 8.74, repro,
2000-02-24,4.51, -5.93, -20.87, 2.40, 1.83, 9.00, repro,
2000-02-25,0.50, -5.83, -20.06, 2.21, 1.69, 8.27, repro,
2000-02-26,3.35, -2.60, -19.92, 2.26, 1.71, 8.32, repro,
2000-02-27,1.83, -4.95, -18.28, 2.22, 1.70, 8.31, repro,
2000-02-28,3.58, -4.27, -13.05, 2.38, 1.82, 8.99, repro,
2000-02-29,1.19, -4.93, -6.36, 2.24, 1.73, 8.41, repro,
2000-03-01,0.04, -5.86, -4.64, 2.73, 2.08, 10.17, repro,
2000-03-02,2.38, -5.30, -3.41, 2.20, 1.68, 8.50, repro,
2000-03-05,1.50, -3.61, -13.12, 2.23, 1.69, 8.64, repro,
2000-03-06,2.39, -5.29, -11.73, 2.48, 1.86, 9.30, repro,
2000-03-07,1.98, -4.08, -15.60, 2.51, 1.88, 9.56, repro,
2000-03-08,0.58, -3.97, -13.22, 2.95, 2.27, 11.37, repro,
2000-03-09,0.33, -3.18, -10.94, 2.26, 1.74, 8.86, repro,
2000-03-10,1.65, -4.30, -15.15, 2.87, 2.18, 11.19, repro,
2000-03-11,3.83, -4.77, -13.98, 2.61, 2.01, 10.01, repro,
2000-03-12,1.87, -6.02, -9.80, 2.39, 1.76, 9.15, repro,
2000-03-13,-0.26, -3.17, -14.62, 2.32, 1.72, 9.00, repro,
2000-03-14,4.36, -0.17, -27.54, 2.46, 1.87, 9.75, repro,
2000-03-15,-1.34, -4.28, -21.93, 2.36, 1.80, 9.13, repro,
2000-03-16,1.11, -3.84, -10.72, 2.27, 1.70, 8.87, repro,
2000-03-17,-0.53, -2.75, -11.46, 2.36, 1.77, 9.20, repro,
2000-03-18,-2.39, -3.24, -14.29, 2.34, 1.77, 8.88, repro,
2000-03-19,0.32, -3.04, -20.26, 2.27, 1.75, 8.66, repro,
2000-03-20,-3.30, -2.89, -11.47, 2.43, 1.82, 9.29, repro,
2000-03-21,1.32, -6.20, -3.89, 2.28, 1.76, 8.77, repro,
2000-03-22,-0.57, -2.90, -11.72, 2.30, 1.74, 8.89, repro,
2000-03-23,-2.43, -2.22, -14.29, 2.41, 1.86, 9.47, repro,
2000-03-24,0.16, -3.96, -9.78, 2.35, 1.79, 9.28, repro,
2000-03-25,1.86, -8.49, -11.85, 2.31, 1.74, 9.00, repro,
2000-03-26,-0.50, -3.13, -8.24, 2.34, 1.74, 9.47, repro,
2000-03-27,0.94, -5.12, -6.33, 2.47, 1.84, 9.57, repro,
2000-03-28,2.17, -4.72, 3.69, 2.28, 1.71, 8.76, repro,
2000-03-29,0.47, -3.67, -2.27, 2.26, 1.72, 8.89, repro,
2000-03-30,2.76, -4.53, -0.49, 2.33, 1.73, 8.88, repro,
2000-03-31,0.71, -3.52, -21.91, 2.95, 2.24, 10.63, repro,
2000-04-01,1.16, -3.02, -6.80, 2.43, 1.86, 9.40, repro,
2000-04-02,1.37, 0.54, -15.17, 2.58, 1.97, 10.01, repro,
2000-04-03,-0.10, -2.46, -6.09, 2.40, 1.78, 9.23, repro,
2000-04-04,-2.17, -4.87, -0.40, 2.54, 1.89, 9.58, repro,
2000-04-05,-0.47, -3.89, -5.54, 2.26, 1.69, 8.77, repro,
2000-04-06,0.39, -2.58, -11.33, 2.90, 2.13, 11.15, repro,
2000-04-07,3.23, -5.09, -11.81, 2.44, 1.85, 9.63, repro,
2000-04-08,4.19, -7.41, -12.11, 2.43, 1.89, 9.01, repro,
2000-04-09,2.53, -2.46, -15.01, 2.44, 1.87, 9.14, repro,
2000-04-10,1.95, -5.07, -21.75, 2.64, 1.97, 9.67, repro,
2000-04-11,1.58, -7.22, -19.04, 2.35, 1.79, 8.75, repro,
2000-04-12,-0.92, -4.31, -10.08, 2.37, 1.76, 9.14, repro,
2000-04-13,-0.22, -3.78, -14.69, 2.32, 1.76, 8.94, repro,
2000-04-14,0.34, -4.99, -24.31, 2.36, 1.76, 8.76, repro,
2000-04-15,-1.75, -2.32, -22.28, 2.29, 1.69, 8.58, repro,
2000-04-16,-0.37, -5.25, -11.24, 2.69, 2.01, 9.97, repro,
2000-04-17,1.75, -5.18, -12.34, 2.23, 1.70, 8.53, repro,
2000-04-18,0.06, -4.50, -12.38, 2.20, 1.65, 8.54, repro,
2000-04-19,2.68, -6.32, -9.56, 2.47, 1.83, 9.39, repro,
2000-04-20,-0.82, -5.34, -6.49, 2.35, 1.73, 8.91, repro,
2000-04-21,-2.38, -3.62, -5.35, 2.32, 1.74, 8.95, repro,
2000-04-22,0.23, -4.84, -5.58, 2.24, 1.68, 8.45, repro,
2000-04-23,1.65, -5.54, -6.00, 2.23, 1.66, 8.43, repro,
2000-04-24,2.38, -4.36, -12.83, 2.47, 1.83, 9.31, repro,
2000-04-25,1.75, -5.29, -22.47, 2.23, 1.67, 8.71, repro,
2000-04-26,-1.60, -4.14, -9.82, 2.18, 1.63, 8.41, repro,
2000-04-27,-1.88, -4.08, -11.20, 2.39, 1.82, 9.16, repro,
2000-04-28,0.35, -5.84, -4.26, 2.27, 1.70, 8.70, repro,
2000-04-29,-1.12, -5.47, -7.19, 2.21, 1.65, 8.44, repro,
2000-04-30,-1.20, -4.90, -6.54, 2.26, 1.67, 8.66, repro,
2000-05-01,0.67, -4.43, -7.40, 2.30, 1.71, 8.76, repro,
2000-05-02,-0.69, -5.11, -11.29, 2.41, 1.79, 8.95, repro,
2000-05-03,-0.03, -3.33, -10.05, 2.34, 1.76, 9.01, repro,
2000-05-04,-2.36, -2.95, -4.17, 2.24, 1.68, 8.52, repro,
2000-05-05,-0.28, -3.97, -10.26, 2.27, 1.76, 8.58, repro,
2000-05-06,1.61, -2.45, -7.58, 2.24, 1.71, 8.58, repro,
2000-05-07,-1.87, -3.15, -11.81, 2.27, 1.69, 8.56, repro,
2000-05-08,-1.86, -3.37, -18.84, 2.22, 1.66, 8.52, repro,
2000-05-09,-2.70, -3.41, -17.51, 2.27, 1.68, 8.57, repro,
2000-05-10,-0.50, -5.15, -15.16, 2.25, 1.70, 8.55, repro,
2000-05-27,-3.18, -1.14, -5.14, 2.37, 1.76, 8.79, repro,
2000-05-28,-2.96, -0.01, -18.59, 2.40, 1.80, 8.90, repro,
2000-05-29,-2.31, 0.83, -21.95, 2.36, 1.78, 8.88, repro,
2000-05-30,-4.06, -1.73, -11.23, 2.38, 1.76, 8.74, repro,
2000-05-31,-4.77, -0.91, -16.27, 2.28, 1.75, 8.53, repro,
2000-06-01,-3.27, -1.91, -18.17, 2.26, 1.73, 8.69, repro,
2000-06-02,-4.88, -2.05, -15.09, 2.18, 1.67, 8.32, repro,
2000-06-03,-4.70, 0.19, -15.38, 2.18, 1.67, 8.31, repro,
2000-06-04,-3.01, -1.19, -17.84, 2.17, 1.65, 8.37, repro,
2000-06-05,-5.49, -2.46, -8.95, 2.33, 1.76, 8.67, repro,
2000-06-06,-3.83, -3.88, -13.93, 2.26, 1.69, 8.35, repro,
2000-06-07,-3.85, -1.00, -12.97, 2.25, 1.70, 8.43, repro,
2000-06-08,-3.00, -0.51, -10.90, 2.48, 1.88, 9.41, repro,
2000-06-09,-4.59, -1.14, -4.48, 2.25, 1.68, 8.61, repro,
2000-06-10,-3.48, -1.15, 2.69, 2.25, 1.71, 8.49, repro,
2000-06-11,-2.29, -2.87, -10.95, 2.28, 1.74, 8.57, repro,
2000-06-12,-3.20, -0.76, -8.40, 2.20, 1.68, 8.28, repro,
2000-06-13,-3.90, -1.51, -8.14, 2.21, 1.68, 8.37, repro,
2000-06-14,-3.35, -0.46, -12.26, 2.20, 1.68, 8.40, repro,
2000-06-15,-1.69, -2.50, -13.67, 2.28, 1.77, 8.63, repro,
2000-06-16,-4.01, -2.57, -6.73, 2.20, 1.68, 8.38, repro,
2000-06-17,-4.28, -3.22, -5.04, 2.20, 1.68, 8.36, repro,
2000-06-18,-4.30, -2.59, -5.98, 2.23, 1.71, 8.70, repro,
2000-06-19,-2.85, -2.59, -13.46, 2.25, 1.71, 8.58, repro,
2000-06-20,-3.26, -3.18, -11.33, 2.20, 1.69, 8.53, repro,
2000-06-21,-2.13, -0.53, -10.56, 2.23, 1.73, 8.73, repro,
2000-06-22,-1.18, -1.13, 3.40, 2.33, 1.80, 8.98, repro,
2000-06-23,-3.38, -1.17, -4.92, 2.33, 1.77, 8.83, repro,
2000-06-24,-2.16, -1.95, -15.43, 2.19, 1.66, 8.30, repro,
2000-06-25,-5.00, -0.89, -5.05, 2.17, 1.68, 8.29, repro,
2000-06-26,-3.31, 0.57, -13.93, 2.75, 2.08, 10.71, repro,
2000-06-27,-4.17, -1.03, -8.52, 2.26, 1.72, 8.94, repro,
2000-06-28,-1.85, -1.63, -9.10, 2.27, 1.69, 8.80, repro,
2000-06-29,0.29, -2.58, 2.05, 2.30, 1.74, 8.67, repro,
2000-06-30,-2.85, -3.72, -2.35, 2.25, 1.70, 8.60, repro,
2000-07-01,-6.33, -2.90, -7.10, 2.24, 1.70, 8.67, repro,
2000-07-02,-1.72, 0.11, 0.19, 2.27, 1.71, 8.82, repro,
2000-07-03,-4.96, -1.66, -15.04, 2.36, 1.82, 8.92, repro,
2000-07-04,-1.01, -2.23, -1.52, 2.18, 1.64, 8.43, repro,
2000-07-05,-2.29, -2.88, -1.19, 2.23, 1.67, 8.68, repro,
2000-07-06,-1.70, -0.93, -0.21, 2.21, 1.67, 8.58, repro,
2000-07-07,-3.84, -0.67, -15.26, 2.27, 1.69, 8.96, repro,
2000-07-08,-0.05, -0.43, -7.93, 2.25, 1.69, 8.52, repro,
2000-07-09,-4.12, -3.07, -4.29, 2.26, 1.74, 8.73, repro,
2000-07-10,-1.59, -1.20, 1.52, 2.32, 1.74, 8.79, repro,
2000-07-11,-4.07, -0.77, -2.44, 2.35, 1.83, 8.85, repro,
2000-07-12,-0.71, -1.32, 4.05, 2.22, 1.71, 8.55, repro,
2000-07-13,-4.28, -2.78, 3.01, 2.32, 1.79, 8.90, repro,
2000-07-14,1.82, -2.41, -1.87, 2.61, 1.94, 9.65, repro,
2000-07-15,0.97, -1.06, -0.47, 2.79, 2.11, 10.74, repro,
2000-07-16,-3.03, -2.22, -3.20, 2.28, 1.73, 8.59, repro,
2000-07-17,-1.80, -1.58, 6.80, 2.20, 1.67, 8.62, repro,
2000-07-18,-1.45, -3.74, -1.40, 2.29, 1.71, 8.89, repro,
2000-07-19,0.24, -3.23, 2.55, 2.37, 1.79, 9.56, repro,
2000-07-20,-2.35, -1.68, -3.95, 2.56, 1.95, 9.85, repro,
2000-07-21,-4.05, -1.04, 1.06, 2.20, 1.70, 8.64, repro,
2000-07-22,-2.17, -2.07, 1.35, 2.49, 1.85, 9.20, repro,
2000-07-23,0.50, -2.96, -7.14, 2.54, 1.88, 9.74, repro,
2000-07-24,-0.95, -1.60, -11.14, 2.34, 1.74, 8.74, repro,
2000-07-25,0.12, -0.02, -8.53, 2.28, 1.75, 8.79, repro,
2000-07-26,-2.16, -1.76, -3.77, 2.45, 1.82, 9.28, repro,
2000-07-27,-1.69, -1.56, -5.70, 2.31, 1.75, 8.99, repro,
2000-07-28,-3.02, -1.76, 4.98, 2.67, 2.08, 10.21, repro,
2000-07-29,-1.84, -3.78, 0.70, 2.65, 1.96, 10.02, repro,
2000-07-30,-3.39, -1.07, -5.44, 2.28, 1.77, 8.78, repro,
2000-07-31,0.90, -1.95, -0.67, 2.39, 1.78, 9.03, repro,
2000-08-01,-1.30, -2.59, -1.13, 2.46, 1.84, 9.41, repro,
2000-08-02,-3.96, -2.27, -1.84, 2.34, 1.80, 8.94, repro,
2000-08-03,-2.56, -3.73, 3.16, 2.32, 1.79, 8.95, repro,
2000-08-04,-2.93, -4.18, 5.75, 2.46, 1.83, 9.32, repro,
2000-08-05,-2.65, -2.03, -5.44, 2.49, 1.88, 9.42, repro,
2000-08-06,-2.24, -2.08, -1.51, 2.42, 1.80, 9.15, repro,
2000-08-07,-3.02, -1.06, -3.46, 2.31, 1.76, 8.96, repro,
2000-08-08,-1.42, -1.17, -2.41, 2.26, 1.74, 8.76, repro,
2000-08-09,-3.90, -3.29, 6.66, 2.43, 1.87, 9.26, repro,
2000-08-10,-2.08, -3.90, 1.77, 2.61, 1.95, 9.91, repro,
2000-08-11,2.99, -3.24, -0.19, 2.83, 2.05, 10.66, repro,
2000-08-12,-2.78, 1.33, -4.71, 3.10, 2.25, 12.12, repro,
2000-08-13,-1.59, -2.57, -10.83, 2.34, 1.78, 9.06, repro,
2000-08-14,-2.18, -2.58, 0.54, 2.29, 1.73, 8.83, repro,
2000-08-15,-1.10, -3.77, 3.19, 2.34, 1.81, 8.99, repro,
2000-08-16,-0.70, -3.55, 2.75, 2.32, 1.79, 8.95, repro,
2000-08-17,-0.87, -3.14, 0.19, 2.33, 1.77, 9.01, repro,
2000-08-18,-3.01, -3.89, 1.36, 2.28, 1.77, 8.80, repro,
2000-08-19,-3.10, -2.47, -5.47, 2.19, 1.70, 8.55, repro,
2000-08-20,-3.15, -2.50, -1.80, 2.26, 1.74, 8.65, repro,
2000-08-21,-1.19, -5.43, 6.47, 2.38, 1.75, 8.92, repro,
2000-08-22,-0.02, -3.11, -14.40, 2.31, 1.77, 8.93, repro,
2000-08-23,1.05, -1.27, -7.80, 2.28, 1.74, 8.85, repro,
2000-08-24,-1.52, -2.29, -7.89, 2.44, 1.86, 9.15, repro,
2000-08-25,-3.98, -2.65, -4.33, 2.29, 1.77, 8.82, repro,
2000-08-26,-2.05, -1.77, 5.42, 2.35, 1.78, 8.91, repro,
2000-08-27,-4.57, -4.17, 2.14, 2.26, 1.74, 8.62, repro,
2000-08-28,-1.36, -4.02, 7.01, 2.46, 1.86, 9.21, repro,
2000-08-29,-1.71, -3.13, 14.59, 2.34, 1.78, 8.85, repro,
2000-08-30,-3.44, -1.50, 7.93, 2.28, 1.79, 8.74, repro,
2000-08-31,-0.59, -1.90, 1.94, 2.31, 1.73, 8.80, repro,
2000-09-01,-1.37, -2.10, 3.82, 2.40, 1.84, 9.50, repro,
2000-09-02,1.16, -1.58, 5.93, 2.53, 1.96, 9.82, repro,
2000-09-03,-1.11, -4.82, 21.00, 2.25, 1.76, 8.66, repro,
2000-09-04,-0.54, -3.80, 9.10, 2.35, 1.81, 9.22, repro,
2000-09-05,-1.38, -3.30, 7.78, 2.24, 1.71, 8.73, repro,
2000-09-06,1.29, -3.80, 13.77, 2.30, 1.77, 8.90, repro,
2000-09-07,0.36, -2.24, 8.87, 2.34, 1.82, 8.95, repro,
2000-09-08,-0.32, -2.70, 8.92, 2.45, 1.87, 9.22, repro,
2000-09-09,2.01, -2.59, 5.24, 2.39, 1.86, 8.94, repro,
2000-09-10,-0.40, -3.27, 16.09, 2.31, 1.77, 8.88, repro,
2000-09-11,0.55, -2.77, 4.45, 2.31, 1.77, 8.87, repro,
2000-09-12,2.28, -3.89, 1.90, 2.77, 2.15, 10.66, repro,
2000-09-13,3.11, -3.82, 1.60, 2.25, 1.73, 8.77, repro,
2000-09-14,1.01, -5.74, 0.47, 2.29, 1.74, 8.80, repro,
2000-09-15,-0.03, -2.97, 0.90, 2.30, 1.77, 8.93, repro,
2000-09-16,1.93, -3.17, 4.58, 2.45, 1.81, 9.38, repro,
2000-09-17,0.36, -2.04, 4.93, 2.38, 1.80, 9.25, repro,
2000-09-18,5.23, -4.17, 2.55, 2.34, 1.82, 9.12, repro,
2000-09-19,1.84, -2.53, -2.21, 2.44, 1.86, 9.44, repro,
2000-09-20,2.05, -2.25, -4.03, 2.29, 1.80, 8.83, repro,
2000-09-21,0.86, 0.21, 1.16, 3.24, 2.40, 11.32, repro,
2000-09-22,-0.06, -1.85, -1.67, 2.16, 1.68, 8.57, repro,
2000-09-23,-0.23, -1.28, 3.12, 2.18, 1.66, 8.59, repro,
2000-09-24,0.72, -4.20, -7.63, 2.23, 1.72, 8.86, repro,
2000-09-25,0.47, -2.03, 3.72, 2.40, 1.81, 9.14, repro,
2000-09-26,1.30, -6.38, -8.43, 2.38, 1.82, 9.34, repro,
2000-09-27,2.33, -5.31, 0.53, 2.22, 1.71, 8.76, repro,
2000-09-28,1.03, -1.61, -5.61, 2.41, 1.86, 9.31, repro,
2000-09-29,-0.35, -0.95, -3.33, 2.25, 1.70, 8.97, repro,
2000-09-30,0.58, -0.89, -13.46, 3.05, 2.23, 11.75, repro,
2000-10-01,0.78, -0.67, -3.41, 2.25, 1.75, 8.75, repro,
2000-10-02,0.33, -2.72, -4.94, 2.36, 1.80, 9.29, repro,
2000-10-03,1.94, -0.41, -1.74, 2.65, 2.01, 10.37, repro,
2000-10-04,0.70, -1.75, -13.01, 3.25, 2.39, 13.21, repro,
2000-10-05,-1.71, -3.87, -7.85, 3.13, 2.38, 13.37, repro,
2000-10-06,1.81, -4.45, -1.93, 2.12, 1.62, 8.49, repro,
2000-10-07,1.53, -5.48, -1.61, 2.14, 1.64, 8.60, repro,
2000-10-08,1.11, -4.39, -2.13, 2.11, 1.62, 8.50, repro,
2000-10-09,1.00, -4.60, -0.10, 2.15, 1.64, 8.70, repro,
2000-10-10,-0.41, -4.22, -4.62, 2.47, 1.87, 9.61, repro,
2000-10-11,1.34, -3.48, 10.40, 2.52, 1.84, 9.39, repro,
2000-10-16,-0.40, -6.87, -37.81, 7.88, 5.64, 33.08, repro,
2000-10-17,1.28, -4.23, -5.35, 2.30, 1.72, 9.12, repro,
2000-10-18,0.97, -5.79, -3.52, 2.29, 1.71, 9.08, repro,
2000-10-19,-0.87, -4.02, -8.21, 2.25, 1.68, 9.15, repro,
2000-10-20,-2.27, -3.25, -5.42, 2.15, 1.64, 8.63, repro,
2000-10-21,-0.87, -5.40, -5.94, 2.15, 1.65, 8.65, repro,
2000-10-22,-1.71, -6.12, -3.18, 2.48, 1.85, 9.43, repro,
2000-10-23,-2.64, -3.98, -1.59, 2.25, 1.68, 9.14, repro,
2000-10-24,-0.90, -6.51, -6.57, 2.39, 1.81, 9.50, repro,
2000-10-25,-1.21, -6.53, -6.36, 2.27, 1.74, 8.98, repro,
2000-10-26,-3.10, -3.71, -6.85, 2.40, 1.80, 9.25, repro,
2000-10-27,1.25, -4.41, 6.02, 2.33, 1.77, 9.07, repro,
2000-10-28,-0.90, -6.39, 2.87, 2.51, 1.92, 9.76, repro,
2000-10-29,1.78, -4.47, 8.28, 3.12, 2.31, 12.17, repro,
2000-10-30,0.03, -4.81, -2.95, 2.26, 1.70, 9.18, repro,
2000-10-31,-1.01, -6.03, 0.47, 2.42, 1.76, 9.53, repro,
2000-11-01,1.55, -5.41, -3.35, 2.25, 1.70, 8.87, repro,
2000-11-02,-0.74, -5.42, -4.41, 2.23, 1.67, 8.87, repro,
2000-11-03,0.14, -7.24, -10.72, 2.23, 1.70, 9.20, repro,
2000-11-04,1.73, -7.24, -10.95, 2.89, 2.16, 11.90, repro,
2000-11-05,0.23, -8.11, -9.79, 2.34, 1.74, 9.03, repro,
2000-11-06,1.36, -10.75, -3.07, 3.44, 2.44, 13.00, repro,
2000-11-07,-0.25, -7.89, -0.37, 2.67, 2.10, 10.47, repro,
2000-11-08,0.47, -5.82, -3.97, 2.24, 1.71, 8.99, repro,
2000-11-09,-1.62, -6.07, -3.53, 2.28, 1.77, 8.93, repro,
2000-11-10,-3.14, -5.93, 3.65, 2.81, 2.13, 11.09, repro,
2000-11-11,-0.92, -8.34, 8.84, 2.51, 1.83, 9.45, repro,
2000-11-12,1.26, -8.31, -2.74, 2.32, 1.75, 8.99, repro,
2000-11-13,0.45, -8.85, -0.44, 2.64, 2.08, 10.44, repro,
2000-11-14,2.81, -8.40, -2.04, 2.30, 1.77, 8.97, repro,
2000-11-15,3.36, -8.32, -3.89, 2.23, 1.73, 8.87, repro,
2000-11-16,1.40, -7.30, -9.71, 2.19, 1.69, 8.74, repro,
2000-11-17,0.51, -8.52, -2.10, 2.14, 1.64, 8.57, repro,
2000-11-18,-0.11, -8.17, -6.31, 2.25, 1.71, 8.90, repro,
2000-11-19,1.82, -8.42, -13.84, 2.34, 1.75, 9.06, repro,
2000-11-20,2.66, -10.18, -13.58, 2.74, 2.09, 9.80, repro,
2000-11-21,2.89, -7.89, -13.54, 2.38, 1.84, 9.53, repro,
2000-11-22,2.82, -9.12, -8.26, 2.61, 2.00, 9.28, repro,
2000-11-23,1.94, -7.68, -6.21, 2.26, 1.75, 8.95, repro,
2000-11-24,1.65, -6.91, -9.80, 2.28, 1.72, 9.03, repro,
2000-11-25,0.50, -7.35, -10.00, 2.36, 1.81, 9.29, repro,
2000-11-26,2.87, -5.96, -8.14, 2.53, 1.90, 9.61, repro,
2000-11-27,2.09, -9.09, -7.08, 2.71, 2.03, 10.97, repro,
2000-11-28,0.47, -8.79, -12.50, 3.07, 2.25, 12.06, repro,
2000-11-29,-3.97, -7.66, -14.66, 3.24, 2.48, 12.60, repro,
2000-11-30,-1.22, -7.62, -8.63, 2.36, 1.87, 9.27, repro,
2000-12-01,0.70, -8.95, -8.07, 2.36, 1.76, 9.05, repro,
2000-12-02,0.50, -7.64, -6.04, 2.30, 1.76, 9.09, repro,
2000-12-03,0.44, -6.84, -4.57, 2.31, 1.76, 9.22, repro,
2000-12-04,0.00, -9.15, 1.78, 2.47, 1.89, 9.71, repro,
2000-12-05,1.34, -8.72, -2.07, 2.24, 1.69, 9.03, repro,
2000-12-06,0.54, -7.84, -6.63, 2.24, 1.69, 9.23, repro,
2000-12-07,2.50, -7.33, -8.93, 2.41, 1.78, 9.31, repro,
2000-12-08,2.07, -6.14, -10.01, 2.45, 1.87, 9.47, repro,
2000-12-09,0.53, -3.62, -1.63, 2.39, 1.82, 9.26, repro,